Powrót do katalogu

COSMOS 970 DEB

AktywnyLEO
NORAD 10570·DEBRIS·🇷🇺 Russia

Wystrzelony Dec 21, 1977 z Baikonur Cosmodrome

Loading…

Następne Przeloty (najbliższe 24 godziny)

TLE

ŚwieżeSource: Space-Track

Epoka: Sep 13, 2026, 20:42 UTC

1 10570U 77121M   26256.86268740  .00001597  00000-0  14513-2 0  9991
2 10570  65.3582 208.0224 0013876 277.6927 112.8964 13.86370737420065

Śledź COSMOS 970 DEB w czasie rzeczywistym z AllMySat

Download on the App Store